Zurück zum Katalog

COSMOS 1375 DEB

AktivLEO
NORAD 17804·DEBRIS·🇷🇺 Russia

Gestartet Jun 6, 1982 von Plesetsk Cosmodrome

Loading…

Nächste Überflüge (nächste 24 Stunden)

TLE

AktuellSource: Space-Track

Epoche: Sep 14, 2026, 11:21 UTC

1 17804U 82055AW  26257.47299079  .00000971  00000-0  66310-3 0  9995
2 17804  65.8140 123.1307 0017659 195.4240 225.7151 14.04345924 69987

Verfolge COSMOS 1375 DEB in Echtzeit mit AllMySat

Download on the App Store